Regional Weather Roundup
Issued by NWS Midland/Odessa, TX

Home | Current Version | Previous Version | Text Only | Print | Product List | Glossary On
Versions: 1 2 3 4 5 6 7 8 9 10 11 12 13 14 15 16 17 18 19 20 21 22 23 24 25 26 27 28 29 30 31 32 33 34 35 36 37 38 39 40 41 42 43 44 45 46 47 48 49 50
000
ASUS44 KMAF 292110
RWRMAF
MIDLAND AREA WEATHER ROUNDUP
NATIONAL WEATHER SERVICE MIDLAND TX
400 PM CDT MON MAY 29 2017

...IN SOUTHWEST TEXAS AND SOUTHEAST NEW MEXICO...

CITY           SKY/WX    TMP DP  RH WIND       PRES   REMARKS
ALPINE         MOSUNNY   82  51  33 E10G17    30.15F
ANDREWS        FAIR      85  34  16 E16G22    30.09F
ARTESIA        SUNNY     86  39  19 SE20G26   30.08F
BIG SPRING     SUNNY     83  39  21 E10G16    30.10F
CARLSBAD       SUNNY     87  37  17 SE14G22   30.05F
DRYDEN           N/A     84  61  45 E9G17     30.00F
FORT STOCKTON  MOSUNNY   87  50  27 E18G25    30.04F
GUAD PASS      SUNNY     77  40  26 E23G37    30.17F
HOBBS          SUNNY     84  37  18 E13G20    30.12F
MARFA          PTSUNNY   80  51  36 NE21G30   30.11F
MIDLAND AIRPK  SUNNY     88  35  15 E12G18    30.08F
MIDLAND INTL   SUNNY     86  33  15 E10       30.07F
ODESSA         SUNNY     88  30  12 E12       30.08F
PECOS          SUNNY     88  44  21 E16G22    30.02F
PRESIDIO       FAIR      87  56  35 NE13G21   29.98S
SEMINOLE       SUNNY     85  33  15 E9G21     30.11F
SNYDER         SUNNY     83  44  25 E8        30.09F
WINK           SUNNY     90  36  14 SE15      30.03F
$$
...OTHER STATIONS IN TEXAS...

CITY           SKY/WX    TMP DP  RH WIND       PRES   REMARKS
ABILENE        SUNNY     82  48  30 N7        30.06F
AMARILLO       PTSUNNY   80  37  21 SE15G22   30.13F
AUSTIN         PTSUNNY   85  67  54 S3        29.99F
BROWNSVILLE    CLOUDY    85  71  63 E12       29.94S
CORPUS CHRISTI PTSUNNY   86  70  58 N6        29.93S
DALLAS FTW     PTSUNNY   88  48  25 NE8       30.01F
DEL RIO        MOSUNNY   85  69  58 E13       29.97F
EL PASO        MOSUNNY   89  35  14 E15G21    30.01F
HOUSTON INT    CLOUDY    80  68  66 NE10      29.99S
LUBBOCK        MOSUNNY   85  33  15 MISG      30.10F
SAN ANGELO     SUNNY     87  50  27 NE13      30.04F
SAN ANTONIO    MOSUNNY   85  64  49 VRB3      29.98F
WACO           MOSUNNY   84  68  58 SE5       30.00F
WICHITA FALLS  NOT AVBL
$$
...OTHER LOCATIONS IN NEW MEXICO...

CITY           SKY/WX    TMP DP  RH WIND       PRES   REMARKS
ALAMOGORDO     MOSUNNY   84  32  15 SE20      30.05F
ALBUQUERQUE    CLOUDY    80  32  17 SW18G24   30.11F
CANNON AFB     MOSUNNY   82  36  18 S20       30.13F
CLOVIS         MOSUNNY   82  37  20 SE12G20   30.14F
HOLLOMAN AFB   MOSUNNY   88  32  13 SE13G25   30.06F
ROSWELL        MOSUNNY   85  40  20 SE17G24   30.09F
RUIDOSO        CLOUDY    64  36  34 S23       30.30F
SANTA FE       CLOUDY    72  33  24 NE29G39   30.18S
TRUTH OR CONSE CLOUDY    82  36  19 SW8G20    30.07F
TUCUMCARI      PTSUNNY   82  39  21 SE10G28   30.08F
$$




USA.gov is the U.S. government's official web portal to all federal, state and local government web resources and services.